Regional Weather Roundup
Issued by NWS

Home | Current Version | Previous Version | Graphics & Text | Print | Product List | Glossary On
Versions: 1 2 3 4 5 6 7 8 9 10 11 12 13 14 15 16 17 18 19 20 21 22 23 24 25 26 27 28 29 30 31 32 33 34 35 36 37 38 39 40 41 42 43 44 45 46 47 48 49 50
000
ASUS43 KTOP 230459
RWRKS

WEATHER ROUNDUP FOR KANSAS
NATIONAL WEATHER SERVICE GOODLAND KS
1200 AM CDT THU OCT 23 2014

NOTE:  "FAIR" INDICATES FEW OR NO CLOUDS BELOW 12,000 FEET WITH NO
SIGNIFICANT WEATHER AND/OR OBSTRUCTIONS TO VISIBILITY.

KSZ001>006-013>018-027>032-041>047-230600-
NORTHWEST KANSAS

CITY           SKY/WX    TMP DP  RH WIND       PRES   REMARKS
GOODLAND       PTCLDY    49  44  83 SE5       30.10F
HAYS           CLOUDY    59  54  82 S6        30.07R
HILL CITY      CLEAR     54  52  93 CALM      30.06F
RUSSELL        PTCLDY    59  56  89 S10       30.04S
$$

KSZ061>065-074>080-084>089-230600-
SOUTHWEST KANSAS

CITY           SKY/WX    TMP DP  RH WIND       PRES   REMARKS
DODGE CITY     CLOUDY    62  57  83 S15       30.08S
ELKHART          N/A     59  55  87 S6          N/A
GARDEN CITY    CLOUDY    61  58  90 S14       30.07F
GREAT BEND     CLOUDY    61  55  82 SW15      30.07R
LIBERAL        CLOUDY    64  57  77 SW14      30.10S
$$

KSZ066>073-081>083-090>101-230600-
SOUTHEAST KANSAS

CITY           SKY/WX    TMP DP  RH WIND       PRES   REMARKS
CHANUTE        CLOUDY    62  59  90 SE8       30.11F
COFFEYVILLE    CLOUDY    63  57  81 SE6       30.11F
HUTCHINSON     MOCLDY    62  57  83 S10       30.08S
NEWTON         CLOUDY    61  54  77 S10       30.10F
PARSONS        CLOUDY    65  57  75 VRB3      30.13S
WICHITA INTL   CLOUDY    65  57  75 S12       30.09F
WICHITA JABRA  CLOUDY    66  56  70 SW13      30.10S
WINFIELD       LGT RAIN  62  60  93 SW9       30.13S
$$

KSZ007>012-019>026-033>040-048>060-102>105-230600-
NORTHEAST KANSAS

CITY           SKY/WX    TMP DP  RH WIND       PRES   REMARKS
CONCORDIA      CLOUDY    61  60  97 E3        30.06S
EMPORIA        CLOUDY    62  59  90 CALM      30.08F
LAWRENCE       CLOUDY    61  53  75 SE9       30.09F
MANHATTAN      CLOUDY    63  61  93 CALM      30.07S
OLATHE IND     MOCLDY    62  52  69 SE12      30.11F
OLATHE EXE     MOCLDY    60  52  74 S10       30.11S
SALINA         CLOUDY    64  58  80 S8        30.06S
TOPEKA BILLARD CLOUDY    67  58  72 S10       30.08S
TOPEKA FORBES  CLOUDY    65  57  75 S9        30.08S
$$



USA.gov is the U.S. government's official web portal to all federal, state and local government web resources and services.